Location: Mactaquac Provincial Park
(45.9573°N, 66.8897°W)
Time: 08:26:24
(UTC-04:00)

CENTAUR R/B - Visible Passes

Search period start: 28 February 2015 00:00
Search period end: 10 March 2015 01:00
Orbit: 887 x 1302 km, 63.5° (Epoch: 27 February)

Date Brightness Start Highest point End Pass type
(mag) Time Alt. Az. Time Alt. Az. Time Alt. Az.
28 Feb 4.0 18:59:44 10° NNW 19:05:51 28° NNE 19:11:37 13° ENE visible
28 Feb 2.9 20:50:20 10° NW 20:57:54 71° NE 20:58:49 66° E visible
28 Feb 4.5 22:41:37 10° NW 22:46:02 28° W 22:46:02 28° W visible
01 Mar 3.3 20:02:13 10° NNW 20:09:29 51° NE 20:12:37 35° E visible
01 Mar 3.6 21:53:02 10° NW 21:59:50 49° WSW 21:59:50 49° WSW visible
02 Mar 3.6 19:14:05 10° NNW 19:20:54 38° NE 19:26:28 17° E visible
02 Mar 3.0 21:04:42 10° NW 21:12:20 75° SW 21:13:42 62° S visible
02 Mar 5.0 22:57:11 10° WNW 23:00:55 17° W 23:00:55 17° W visible
03 Mar 2.9 20:16:30 10° NW 20:24:06 78° NE 20:27:39 37° SE visible
03 Mar 4.3 22:07:56 10° NW 22:14:27 29° WSW 22:14:53 29° WSW visible
04 Mar 3.2 19:28:21 10° NW 19:35:43 55° NE 19:41:41 18° ESE visible
04 Mar 3.8 21:19:16 10° NW 21:26:31 45° WSW 21:28:56 36° SSW visible
05 Mar 3.6 18:40:14 10° NNW 18:47:11 40° NE 18:54:39 10° ESE visible
05 Mar 3.2 20:30:53 10° NW 20:38:29 68° WSW 20:43:05 28° SSE visible
05 Mar 5.1 22:23:48 10° WNW 22:28:18 16° WSW 22:30:21 14° WSW visible
06 Mar 3.0 19:42:39 10° NW 19:50:17 84° NE 19:57:23 14° SE visible
06 Mar 4.6 21:34:16 10° WNW 21:40:32 26° WSW 21:44:39 17° SSW visible
07 Mar 3.2 18:54:30 10° NW 19:01:57 60° NE 19:09:54 10° SE visible
07 Mar 4.1 20:45:30 10° NW 20:52:38 41° WSW 20:59:06 13° S visible
08 Mar 3.5 20:57:04 10° NW 21:04:37 62° WSW 21:12:32 10° SSE visible
08 Mar 5.3 22:50:34 10° WNW 22:54:21 14° WSW 22:57:39 10° SW visible
09 Mar 3.1 20:08:49 10° NW 20:16:28 89° SW 20:24:35 10° SE visible
09 Mar 4.9 22:00:39 10° WNW 22:06:36 23° WSW 22:12:26 10° SSW visible
